Regional Weather Roundup
Issued by NWS

Home | Current Version | Previous Version | Graphics & Text | Print | Product List | Glossary Off
Versions: 1 2 3 4 5 6 7 8 9 10 11 12 13 14 15 16 17 18 19 20 21 22 23 24 25 26 27 28 29 30 31 32 33 34 35 36 37 38 39 40 41 42 43 44 45 46 47 48 49 50

000
ASUS43 KDMX 241207
RWRIA

WEATHER ROUNDUP FOR IOWA
NATIONAL WEATHER SERVICE DES MOINES IA
700 AM CDT THU JUL 24 2014

NOTE: "FAIR" INDICATES FEW OR NO CLOUDS BELOW 12,000 FEET WITH NO
SIGNIFICANT WEATHER AND/OR OBSTRUCTIONS TO VISIBILITY.

* - THESE STATIONS ARE NOT NWS STATIONS...THUS NOT UNDER NWS
QUALITY CONTROL.  THEY ALSO DO NOT REPORT WEATHER SUCH
AS PRECIPITATION OR FOG.

IAZ001>003-012>014-020>022-031>034-043>046-241300-
   NORTHWEST IOWA

CITY           SKY/WX    TMP DP  RH WIND       PRES   REMARKS
CARROLL *      CLEAR     55  55 100 CALM      30.14F FOG
CHEROKEE *     CLEAR     60  59  98 CALM      30.13F
DENISON *      CLEAR     63  59  88 CALM      30.12F
LE MARS *      CLEAR     63  61  94 CALM      30.13R
ORANGE CITY *  CLEAR     64  57  77 SE3       30.14R
SHELDON *      PTCLDY    59  57  94 CALM      30.13R
SIOUX CITY     CLEAR     64  61  90 SE7       30.11F
6HR MIN TEMP:  62; 6HR MAX TEMP:  66;

SPENCER        CLEAR     59  55  87 E3        30.14F
6HR MIN TEMP:  56; 6HR MAX TEMP:  61;

STORM LAKE *   CLEAR     59  59 100 SE5       30.15F
$$

IAZ055>058-069>071-079>083-090>094-241300-
   SOUTHWEST IOWA

CITY           SKY/WX    TMP DP  RH WIND       PRES   REMARKS
ATLANTIC *     CLEAR     57  57 100 N3        30.13F
AUDUBON *      CLEAR     59  57  94 CALM      30.16S
CLARINDA *     CLEAR     59  57  94 CALM      30.16S
COUNCIL BLFS *   N/A     63  61  94 S5        30.13S
CRESTON *      CLEAR     61  57  88 E5        30.16F
HARLAN  *      CLEAR     59  57  94 CALM      30.17F
LAMONI         CLEAR     62  59  90 E3        30.16S
6HR MIN TEMP:  58; 6HR MAX TEMP:  66;

RED OAK *      CLEAR     63  59  88 CALM      30.14F
SHENANDOAH *   CLEAR     63  59  88 CALM      30.15S
$$

IAZ047>049-059>061-072>074-084-241300-
   CENTRAL IOWA

CITY           SKY/WX    TMP DP  RH WIND       PRES   REMARKS
AMES           CLEAR     59  58  96 CALM      30.15F FOG
6HR MIN TEMP:  56; 6HR MAX TEMP:  63;

ANKENY *       CLEAR     59  57  94 CALM      30.15S
CHARITON *     CLEAR     61  59  94 CALM      30.16S
DES MOINES     CLEAR     66  60  81 CALM      30.15S
6HR MIN TEMP:  64; 6HR MAX TEMP:  70;

GRINNELL*      CLEAR     59  57  94 CALM      30.17S
KNOXVILLE *    CLEAR     61  59  94 CALM      30.14S
MARSHALLTOWN   CLEAR     60  58  92 CALM      30.16S
6HR MIN TEMP:  57; 6HR MAX TEMP:  62;

PELLA *        CLEAR     61  60  95 CALM      30.16S
PERRY *          N/A     59  59 100 CALM      30.16S
$$

IAZ004>006-015-016-023>025-035-036-241300-
   NORTH CENTRAL IOWA

CITY           SKY/WX    TMP DP  RH WIND       PRES   REMARKS
ALGONA *       CLEAR     59  59 100 SE5       30.15F
CLARION *      CLEAR     59  57  94 E3        30.15F
ESTHERVILLE    CLEAR     55  53  93 CALM      30.14F
6HR MIN TEMP:  53; 6HR MAX TEMP:  58;

FORT DODGE *   CLEAR     59  57  94 E3        30.15F
MASON CITY     CLEAR     55  54  96 E3        30.17F
6HR MIN TEMP:  51; 6HR MAX TEMP:  60;

FOREST CITY *  CLEAR     55  55 100 CALM      30.16S
IOWA FALLS *     N/A     59  55  88 CALM      30.17F
$$

IAZ007>011-017>019-026>030-037>042-050>054-066-241300-
   NORTHEAST IOWA

CITY           SKY/WX    TMP DP  RH WIND       PRES   REMARKS
CEDAR RAPIDS   SUNNY     60  57  89 SE3       30.17R
6HR MIN TEMP:  57; 6HR MAX TEMP:  62;

CHARLES CITY * SUNNY     59  55  88 CALM      30.17F
CLINTON *      CLOUDY    61  54  77 NE3       30.22R
DECORAH *      SUNNY     59  57  94 S5        30.17S
DUBUQUE        PTSUNNY   58  52  80 CALM      30.20R
6HR MIN TEMP:  54; 6HR MAX TEMP:  63;

MONTICELLO *   SUNNY     57  57 100 CALM      30.18S
OELWEIN *      SUNNY     59  57  94 SE7       30.18F
WATERLOO       SUNNY     56  55  97 CALM      30.16S
6HR MIN TEMP:  53; 6HR MAX TEMP:  60;

$$

IAZ064-065-067-068-078-241300-
   EAST CENTRAL IOWA

CITY           SKY/WX    TMP DP  RH WIND       PRES   REMARKS
DAVENPORT      SUNNY     57  53  86 E3        30.19R
6HR MIN TEMP:  53; 6HR MAX TEMP:  64;

IOWA CITY      SUNNY     61  56  83 VRB3      30.19R
6HR MIN TEMP:  59; 6HR MAX TEMP:  65;

MT. PLEASANT * SUNNY     60  57  91 CALM      30.17S
MUSCATINE *    SUNNY     57  55  94 CALM      30.18R
QUAD CITIES    PTSUNNY   58  55  90 CALM      30.18R
6HR MIN TEMP:  56; 6HR MAX TEMP:  64;

$$

IAZ062-063-075>077-085>089-095>099-241300-
   SOUTHEAST IOWA

CITY           SKY/WX    TMP DP  RH WIND       PRES   REMARKS
BURLINGTON     SUNNY     62  56  80 E3        30.17R
6HR MIN TEMP:  58; 6HR MAX TEMP:  63;

FAIRFIELD *    SUNNY     59  57  94 E5        30.17R
FORT MADISON * SUNNY     61  59  94 CALM      30.17S
KEOKUK *       SUNNY     61  57  88 E3        30.16R
OSKALOOSA *      N/A     59  58  96 NE6       30.17R
CENTERVILLE *  CLEAR     57  57 100 CALM      30.18R
OTTUMWA        CLEAR     60  57  89 NE6       30.16R
6HR MIN TEMP:  56; 6HR MAX TEMP:  61;

WASHINGTON *   SUNNY     59  57  94 CALM      30.17S
$$

ABBREVIATIONS USED IN REMARKS
   TC - TEMPERATURES IN CELSIUS
  WCI - WIND CHILL INDEX
   HX - HEAT INDEX
  VSB - VISIBILITY
$$



USA.gov is the U.S. government's official web portal to all federal, state and local government web resources and services.